[[{"header":{"parameterUnit":"m.s-1","parameterCategory":2,"la1":30.2991,"la2":30.254,"lo1":-89.0895,"lo2":-89.0444,"dy":0.0017,"dx":0.0017,"nx":28,"ny":28,"refTime":"2024-02-13T09:00:00:Z","depth":"0","parameterNumber":2,"parameterNumberName":"U-component_of_CURRENTS"},"data":[0,0,0,0,0,0,0,0,0,0,0,0,0,0,0,0,0,0,0,0,0,0,0,0,0,0,0,0,0,0,0,0,0,0,0,0,0,0,0,0,0,0,0,0,0,0,0,0,0,0,0,0,0,0,0,0,0,0,-0.2304,-0.2304,0,-0.2283,-0.2282,-0.2281,-0.224,-0.224,-0.224,-0.2239,-0.2178,-0.2177,-0.2175,0,0,0,0,0,0,0,0,0,0,0,0,0,-0.2248,-0.2249,-0.2304,-0.2304,-0.2304,-0.2283,-0.2282,-0.2281,-0.2241,-0.224,-0.224,-0.2239,-0.2178,-0.2177,-0.2175,0,0,0,0,0,0,0,0,0,0,0,0,0,-0.2249,-0.2249,-0.2304,-0.2285,-0.2283,-0.2283,-0.2282,-0.2281,-0.2241,-0.224,-0.224,-0.2239,-0.2179,-0.2177,-0.2175,-0.2173,0,0,-0.2169,-0.2168,0,0,0,0,0,0,0,0,-0.2249,-0.2251,-0.2287,-0.2286,-0.2285,-0.2268,-0.224,-0.2245,-0.2241,-0.2252,-0.2239,-0.2239,-0.2208,-0.2204,-0.2194,-0.217,-0.2168,-0.2169,-0.2168,-0.2167,-0.2166,0,0,0,0,0,0,0,-0.2249,-0.2251,-0.229,-0.2288,-0.2286,-0.2257,-0.2257,-0.224,-0.2228,-0.2251,-0.2249,-0.2255,-0.2206,-0.2196,-0.2192,-0.2167,-0.2169,-0.2167,-0.2166,-0.2165,-0.2145,-0.2146,0,0,0,0,0,0,-0.2266,-0.2252,-0.2291,-0.229,-0.2271,-0.2259,-0.2258,-0.227,-0.2229,-0.2224,-0.2255,-0.2253,-0.22,-0.2195,-0.219,-0.22,-0.2167,-0.2165,-0.2164,-0.2144,-0.2145,-0.2146,0,0,0,0,0,0,-0.2265,-0.227,-0.2292,-0.2274,-0.2275,-0.2262,-0.2274,-0.227,-0.2261,-0.2234,-0.2227,-0.2252,-0.2199,-0.2193,-0.2177,-0.2197,-0.2164,-0.2162,-0.2143,-0.2144,-0.2145,-0.2211,0,0,0,0,0,0,-0.2263,-0.227,-0.2277,-0.2275,-0.2277,-0.2302,-0.2275,-0.227,-0.2268,-0.2265,-0.2229,-0.2223,-0.2198,-0.218,-0.2175,-0.2194,-0.2161,-0.2143,-0.2144,-0.2145,-0.2208,-0.2214,-0.2219,0,0,0,0,0,-0.2262,-0.2277,-0.2277,-0.2282,-0.229,-0.2303,-0.2301,-0.2285,-0.2269,-0.2273,-0.2244,-0.2224,-0.2185,-0.2179,-0.2173,-0.2191,-0.2142,-0.2144,-0.2145,-0.2205,-0.2213,-0.2219,0,0,0,0,0,0,-0.2251,-0.2275,-0.2275,-0.2295,-0.2305,-0.2298,-0.2299,-0.229,-0.227,-0.2259,-0.2228,-0.222,-0.2214,-0.2193,-0.2188,-0.2189,-0.2162,-0.2162,-0.221,-0.2217,-0.2222,-0.223,-0.2159,0,0,0,0,0,-0.2257,-0.2274,-0.2292,-0.2305,-0.2314,-0.2306,-0.2307,-0.23,-0.2287,-0.2277,-0.2255,-0.223,-0.2216,-0.2208,-0.2188,-0.2189,-0.2185,-0.2198,-0.2203,-0.2208,-0.221,-0.223,-0.2238,-0.2151,-0.2151,-0.215,0,0,-0.2254,-0.2271,-0.2279,-0.2304,-0.2305,-0.2325,-0.2304,-0.231,-0.2321,-0.2274,-0.2271,-0.2246,-0.2219,-0.2218,-0.2214,-0.2203,-0.2232,-0.221,-0.2215,-0.2214,-0.2232,-0.2241,-0.2248,-0.2152,-0.2151,-0.2151,0,0,-0.2264,-0.2277,-0.2297,-0.2313,-0.233,-0.2332,-0.234,-0.234,-0.2334,-0.2333,-0.2303,-0.229,-0.2268,-0.2256,-0.2246,-0.2271,-0.2259,-0.2268,-0.2306,-0.2325,-0.2333,-0.2339,-0.2354,-0.2361,-0.2274,-0.2274,-0.2275,0,-0.2258,-0.2288,-0.2302,-0.2329,-0.2343,-0.2342,-0.2364,-0.2366,-0.2359,-0.2363,-0.234,-0.2321,-0.2288,-0.2302,-0.23,-0.2286,-0.2293,-0.2284,-0.2334,-0.2341,-0.2346,-0.2359,-0.2366,-0.2278,-0.2277,-0.2277,-0.2277,0,-0.2286,-0.231,-0.2323,-0.236,-0.2379,-0.2395,-0.2414,-0.2424,-0.2415,-0.2418,-0.2425,-0.2388,-0.2377,-0.237,-0.2334,-0.2364,-0.2355,-0.2339,-0.2321,-0.2359,-0.237,-0.2376,-0.2283,-0.2281,-0.228,-0.228,0,0,-0.2262,-0.2329,-0.233,-0.2355,-0.2394,-0.2411,-0.2444,-0.2474,-0.2497,-0.2491,-0.252,-0.2485,-0.2467,-0.2454,-0.2423,-0.2433,-0.2465,-0.2401,-0.24,-0.2421,-0.2512,-0.2463,-0.2464,-0.2464,-0.2465,-0.2466,-0.2507,0,-0.2271,-0.2323,-0.2357,-0.2401,-0.2428,-0.2456,-0.2491,-0.252,-0.2533,-0.2563,-0.255,-0.2553,-0.2503,-0.2492,-0.2498,-0.247,-0.2484,-0.2455,-0.2465,-0.2465,-0.2422,-0.2471,-0.2352,-0.2375,-0.2513,-0.2514,-0.2515,0,-0.2275,-0.2314,-0.2358,-0.2428,-0.2443,-0.247,-0.2527,-0.2558,-0.2609,-0.262,-0.2639,-0.263,-0.2634,-0.2584,-0.2585,-0.2572,-0.2542,-0.2526,-0.2527,-0.2461,-0.2427,-0.2356,-0.2381,-0.2345,-0.2524,-0.2523,-0.2523,0,-0.2235,-0.2308,-0.2341,-0.2364,-0.2445,-0.2469,-0.2505,-0.2565,-0.259,-0.2651,-0.267,-0.2699,-0.2685,-0.2685,-0.2629,-0.2614,-0.2636,-0.2613,-0.2552,-0.2548,-0.2437,-0.2421,-0.243,-0.2623,-0.2623,-0.2623,-0.2623,0,-0.2223,-0.2246,-0.2324,-0.2342,-0.2379,-0.2449,-0.2489,-0.2535,-0.2604,-0.2634,-0.268,-0.2696,-0.2705,-0.2711,-0.2677,-0.2633,-0.2674,-0.2568,-0.256,-0.2456,-0.2442,-0.2395,-0.2392,-0.2624,-0.2624,-0.2624,-0.2623,0,-0.2157,-0.2215,-0.225,-0.2334,-0.2356,-0.2373,-0.2451,-0.2484,-0.2562,-0.2604,-0.2619,-0.2689,-0.2702,-0.2714,-0.271,-0.2668,-0.2597,-0.2621,-0.2496,-0.2472,-0.2374,-0.2379,-0.2367,-0.2306,-0.2576,-0.2575,-0.2574,0,-0.2127,-0.2139,-0.2208,-0.222,-0.2249,-0.2294,-0.2323,-0.2427,-0.2464,-0.258,-0.2589,-0.2645,-0.2661,-0.267,-0.262,-0.2599,-0.2555,-0.2468,-0.241,-0.2364,-0.2364,-0.2357,-0.2305,-0.2294,-0.2291,-0.2288,-0.2286,0,-0.2052,-0.207,-0.2097,-0.2123,-0.2149,-0.2186,-0.2241,-0.2271,-0.2393,-0.2444,-0.2519,-0.2559,-0.2584,-0.2519,-0.2495,-0.2454,-0.2391,-0.2415,-0.24,-0.2174,-0.2135,-0.2071,-0.2279,-0.2264,-0.2267,-0.2268,-0.2269,-0.227,-0.197,-0.1963,-0.1995,-0.2006,-0.2038,-0.2063,-0.2056,-0.2142,-0.2194,-0.226,-0.2374,-0.2408,-0.2396,-0.235,-0.2323,-0.2202,-0.2239,-0.2113,-0.2134,-0.2141,-0.2043,-0.2205,-0.2159,-0.2161,-0.2162,-0.2163,-0.2164,0,-0.1865,-0.1872,-0.188,-0.1893,-0.1879,-0.1939,-0.1985,-0.1968,-0.1988,-0.2095,-0.215,-0.2185,-0.2113,-0.2119,-0.202,-0.1936,-0.1886,-0.1885,-0.184,-0.1809,-0.1969,-0.1915,-0.1775,-0.1775,-0.1775,-0.1776,-0.1776,-0.1776,-0.1812,-0.1781,-0.1788,-0.1728,-0.1733,-0.1682,-0.1682,-0.1684,-0.1732,-0.1769,-0.1835,-0.1941,-0.1923,-0.1995,-0.1874,-0.1788,-0.1727,-0.1663,-0.1704,-0.1808,-0.1831,-0.1852,-0.1801,-0.164,-0.164,-0.146,-0.1459,-0.1458]},{"header":{"parameterUnit":"m.s-1","parameterCategory":2,"la1":30.2991,"la2":30.254,"lo1":-89.0895,"lo2":-89.0444,"dy":0.0017,"dx":0.0017,"nx":28,"ny":28,"refTime":"2024-02-13T09:00:00:Z","depth":"0","parameterNumber":3,"parameterNumberName":"V-component_of_CURRENTS"},"data":[0,0,0,0,0,0,0,0,0,0,0,0,0,0,0,0,0,0,0,0,0,0,0,0,0,0,0,0,0,0,0,0,0,0,0,0,0,0,0,0,0,0,0,0,0,0,0,0,0,0,0,0,0,0,0,0,0,0,-0.0229,-0.0229,0,-0.0177,-0.0176,-0.0176,-0.0153,-0.0153,-0.0153,-0.0153,-0.0105,-0.0103,-0.0102,0,0,0,0,0,0,0,0,0,0,0,0,0,-0.0264,-0.0264,-0.0229,-0.0228,-0.0228,-0.0177,-0.0176,-0.0176,-0.0153,-0.0153,-0.0153,-0.0153,-0.0105,-0.0104,-0.0102,0,0,0,0,0,0,0,0,0,0,0,0,0,-0.0235,-0.0264,-0.0229,-0.0209,-0.0207,-0.0177,-0.0176,-0.0176,-0.0153,-0.0153,-0.0153,-0.0153,-0.0106,-0.0104,-0.0102,-0.0091,0,0,-0.0096,-0.0095,0,0,0,0,0,0,0,0,-0.0237,-0.0234,-0.0213,-0.0211,-0.0208,-0.017,-0.0171,-0.0147,-0.0153,-0.0174,-0.0153,-0.0153,-0.0126,-0.0123,-0.0114,-0.0089,-0.0086,-0.0096,-0.0095,-0.0094,-0.0093,0,0,0,0,0,0,0,-0.0239,-0.0236,-0.0209,-0.0212,-0.0209,-0.0188,-0.0184,-0.0166,-0.0152,-0.0172,-0.017,-0.0163,-0.0125,-0.0116,-0.0113,-0.0086,-0.0096,-0.0094,-0.0093,-0.0092,-0.0032,-0.0032,0,0,0,0,0,0,-0.0246,-0.0238,-0.0211,-0.0208,-0.0222,-0.0187,-0.0183,-0.0183,-0.0152,-0.0147,-0.0163,-0.0162,-0.0119,-0.0115,-0.0111,-0.0093,-0.0094,-0.0092,-0.0091,-0.0033,-0.0032,-0.0032,0,0,0,0,0,0,-0.0247,-0.0244,-0.0213,-0.022,-0.0215,-0.0187,-0.0187,-0.0182,-0.0173,-0.0145,-0.014,-0.0159,-0.0119,-0.0114,-0.0092,-0.0092,-0.0091,-0.009,-0.0033,-0.0033,-0.0032,-0.006,0,0,0,0,0,0,-0.0249,-0.0245,-0.025,-0.0221,-0.0215,-0.0199,-0.0187,-0.0181,-0.0168,-0.0166,-0.0139,-0.0135,-0.0119,-0.0095,-0.009,-0.0089,-0.0088,-0.0034,-0.0033,-0.0032,-0.0059,-0.006,-0.0061,0,0,0,0,0,-0.025,-0.0256,-0.0251,-0.0247,-0.0222,-0.0199,-0.0194,-0.0173,-0.0168,-0.0165,-0.0143,-0.0136,-0.0086,-0.0093,-0.0087,-0.0086,-0.0034,-0.0033,-0.0032,-0.0059,-0.006,-0.0061,0,0,0,0,0,0,-0.0272,-0.0253,-0.0247,-0.0247,-0.0226,-0.0194,-0.0191,-0.0175,-0.0156,-0.0156,-0.013,-0.0124,-0.0106,-0.0088,-0.0097,-0.0064,-0.0059,-0.0056,-0.0081,-0.0081,-0.0082,-0.0094,-0.0087,0,0,0,0,0,-0.028,-0.0282,-0.0255,-0.0256,-0.0248,-0.022,-0.0209,-0.0195,-0.0172,-0.0164,-0.0141,-0.0118,-0.0096,-0.0084,-0.0065,-0.0046,-0.0026,-0.004,-0.0041,-0.0041,-0.0046,-0.0013,-0.0012,-0.0028,-0.0028,-0.0028,0,0,-0.0288,-0.0278,-0.0279,-0.0261,-0.0245,-0.0242,-0.0214,-0.0201,-0.0194,-0.0162,-0.0147,-0.0122,-0.0092,-0.0073,-0.0063,-0.0059,-0.0024,-0.004,-0.0041,-0.0046,-0.0012,-0.0011,-0.0009,-0.0028,-0.0028,-0.0028,0,0,-0.0311,-0.0298,-0.0311,-0.0297,-0.0276,-0.0257,-0.0255,-0.0224,-0.0207,-0.0186,-0.0161,-0.0132,-0.0102,-0.0076,-0.006,-0.0051,-0.0031,-0.0046,-0.0057,-0.0024,-0.0023,-0.0022,0.0011,0.0015,-0.0043,-0.0043,-0.0043,0,-0.0324,-0.0337,-0.0309,-0.0316,-0.0311,-0.0269,-0.0279,-0.0251,-0.0216,-0.02,-0.0187,-0.0129,-0.0103,-0.0073,-0.0068,-0.0053,-0.0033,-0.0059,-0.0027,-0.0025,-0.0023,0.001,0.0015,-0.0044,-0.0044,-0.0044,-0.0044,0,-0.0357,-0.0366,-0.037,-0.0369,-0.0356,-0.0356,-0.0317,-0.0296,-0.0268,-0.0239,-0.02,-0.0153,-0.012,-0.0102,-0.0082,-0.0054,-0.0043,-0.0035,-0.0029,-0.0023,0.0012,0.0018,-0.0046,-0.0046,-0.0045,-0.0045,0,0,-0.0394,-0.0397,-0.0399,-0.0414,-0.0387,-0.0384,-0.036,-0.0331,-0.0319,-0.0266,-0.0246,-0.0189,-0.0157,-0.0137,-0.01,-0.0065,-0.0028,-0.0047,-0.0045,-0.0023,0.0042,0.0112,0.0126,-0.0017,-0.0016,-0.0016,0.0063,0,-0.0433,-0.0469,-0.0451,-0.048,-0.0496,-0.0448,-0.0432,-0.0394,-0.0351,-0.0316,-0.0245,-0.0217,-0.0172,-0.0157,-0.0112,-0.005,-0.0014,-0.005,0.004,0.0043,0.0098,0.0134,0.0167,0.0245,0.0069,0.007,0.007,0,-0.0475,-0.0496,-0.0536,-0.0545,-0.0546,-0.0547,-0.0518,-0.0498,-0.0425,-0.039,-0.0333,-0.0279,-0.0207,-0.0179,-0.0061,-0.0087,-0.0029,0.0022,0.0026,0.0104,0.0124,0.0211,0.0263,0.0379,0.008,0.0079,0.0078,0,-0.0529,-0.0555,-0.0594,-0.0597,-0.0593,-0.0591,-0.058,-0.0521,-0.0508,-0.0438,-0.042,-0.0322,-0.0277,-0.0184,-0.0052,-0.0066,0.0078,0.0071,0.0189,0.0194,0.0247,0.0256,0.0415,0.014,0.014,0.014,0.0139,0,-0.0581,-0.0612,-0.0624,-0.0647,-0.0685,-0.0653,-0.0666,-0.0631,-0.0583,-0.0572,-0.0469,-0.0432,-0.0278,-0.0167,-0.0062,0.0104,0.0076,0.0198,0.0225,0.0241,0.0248,0.0371,0.0412,0.0142,0.0142,0.0141,0.0141,0,-0.0633,-0.0642,-0.0693,-0.0708,-0.0715,-0.0741,-0.0738,-0.0741,-0.0683,-0.0663,-0.0645,-0.0511,-0.0351,-0.0179,-0.0012,0.0095,0.0323,0.0294,0.0311,0.034,0.0553,0.059,0.0777,0.0841,0.043,0.0432,0.0434,0,-0.0663,-0.0694,-0.0748,-0.0786,-0.0797,-0.0825,-0.084,-0.0799,-0.0797,-0.0709,-0.0704,-0.0542,-0.0411,-0.0107,0.0122,0.035,0.0423,0.0491,0.0476,0.059,0.065,0.0675,0.0715,0.0532,0.0535,0.0537,0.0539,0,-0.0718,-0.0735,-0.078,-0.0861,-0.0901,-0.0944,-0.0957,-0.0969,-0.091,-0.0864,-0.0771,-0.0656,-0.0331,-0.0023,0.0299,0.0421,0.0594,0.0542,0.0654,0.0751,0.0793,0.0858,0.0452,0.0558,0.0556,0.0554,0.0553,0.0553,-0.0752,-0.0801,-0.0861,-0.0934,-0.0992,-0.1045,-0.1072,-0.1062,-0.1044,-0.0955,-0.0827,-0.0615,-0.0157,0.0321,0.0475,0.081,0.076,0.0883,0.0919,0.0934,0.1006,0.0652,0.0793,0.0792,0.0792,0.0791,0.0791,0,-0.0791,-0.0847,-0.0928,-0.1015,-0.1088,-0.1097,-0.1137,-0.1142,-0.1115,-0.097,-0.0833,-0.0324,0.0124,0.0524,0.1025,0.1182,0.119,0.1243,0.1273,0.1294,0.0981,0.0996,0.1195,0.1195,0.1195,0.1195,0.1195,0.1195,-0.0815,-0.0899,-0.0945,-0.1073,-0.1134,-0.1207,-0.123,-0.1212,-0.1119,-0.0869,-0.058,-0.0335,0.0271,0.1088,0.151,0.1521,0.1627,0.1622,0.1679,0.1448,0.1416,0.1385,0.1411,0.1693,0.1694,0.1973,0.1976,0.1978]}],[{"header":{"parameterUnit":"m.s-1","parameterCategory":2,"la1":30.2991,"la2":30.254,"lo1":-89.0895,"lo2":-89.0444,"dy":0.0017,"dx":0.0017,"nx":28,"ny":28,"refTime":"2024-02-13T09:00:00:Z","depth":"2","parameterNumber":2,"parameterNumberName":"U-component_of_CURRENTS"},"data":[0,0,0,0,0,0,0,0,0,0,0,0,0,0,0,0,0,0,0,0,0,0,0,0,0,0,0,0,0,0,0,0,0,0,0,0,0,0,0,0,0,0,0,0,0,0,0,0,0,0,0,0,0,0,0,0,0,0,-0.192,-0.192,0,-0.1914,-0.1913,-0.1913,-0.189,-0.1889,-0.1889,-0.1889,-0.1855,-0.1854,-0.1854,0,0,0,0,0,0,0,0,0,0,0,0,0,-0.1885,-0.1885,-0.192,-0.192,-0.192,-0.1914,-0.1913,-0.1913,-0.189,-0.1889,-0.1889,-0.1889,-0.1855,-0.1854,-0.1854,0,0,0,0,0,0,0,0,0,0,0,0,0,-0.1888,-0.1886,-0.192,-0.191,-0.191,-0.1914,-0.1913,-0.1913,-0.189,-0.1889,-0.1889,-0.1889,-0.1855,-0.1854,-0.1853,-0.1854,0,0,-0.185,-0.185,0,0,0,0,0,0,0,0,-0.1888,-0.1889,-0.1911,-0.1911,-0.191,-0.1905,-0.1889,-0.1893,-0.189,-0.1894,-0.1889,-0.1889,-0.1872,-0.1869,-0.1864,-0.1852,-0.1851,-0.185,-0.185,-0.1849,-0.1849,0,0,0,0,0,0,0,-0.1888,-0.1889,-0.1914,-0.1912,-0.1911,-0.1898,-0.1898,-0.1889,-0.1882,-0.1893,-0.1893,-0.1897,-0.187,-0.1866,-0.1863,-0.185,-0.185,-0.1849,-0.1849,-0.1848,-0.185,-0.1851,0,0,0,0,0,0,-0.1897,-0.1889,-0.1914,-0.1914,-0.1902,-0.1899,-0.1899,-0.1904,-0.1882,-0.188,-0.1898,-0.1896,-0.1867,-0.1865,-0.1862,-0.1882,-0.1849,-0.1848,-0.1848,-0.185,-0.1851,-0.1851,0,0,0,0,0,0,-0.1897,-0.19,-0.1914,-0.1904,-0.1905,-0.19,-0.1906,-0.1904,-0.1904,-0.1886,-0.1882,-0.19,-0.1867,-0.1864,-0.1861,-0.188,-0.1848,-0.1847,-0.1849,-0.185,-0.1851,-0.1909,0,0,0,0,0,0,-0.1896,-0.1899,-0.1903,-0.1905,-0.1906,-0.1927,-0.1907,-0.1905,-0.1909,-0.1907,-0.1887,-0.1883,-0.1867,-0.1863,-0.186,-0.1878,-0.1846,-0.1848,-0.1849,-0.1851,-0.1906,-0.1912,-0.1917,0,0,0,0,0,-0.1894,-0.1904,-0.1904,-0.1907,-0.1913,-0.1928,-0.1927,-0.1919,-0.1909,-0.1916,-0.19,-0.1884,-0.1869,-0.1863,-0.1859,-0.1877,-0.1847,-0.1849,-0.185,-0.1904,-0.1911,-0.1917,0,0,0,0,0,0,-0.1888,-0.1903,-0.1902,-0.1915,-0.1926,-0.1925,-0.1928,-0.1925,-0.1918,-0.1912,-0.1892,-0.1887,-0.1892,-0.1876,-0.187,-0.1881,-0.1856,-0.1857,-0.1898,-0.1904,-0.191,-0.1913,-0.1845,0,0,0,0,0,-0.1891,-0.1901,-0.1915,-0.1924,-0.1931,-0.193,-0.1934,-0.1932,-0.1929,-0.1925,-0.1914,-0.1901,-0.1895,-0.1893,-0.1883,-0.189,-0.1882,-0.1899,-0.1904,-0.1909,-0.1909,-0.1919,-0.1925,-0.1856,-0.1856,-0.1856,0,0,-0.189,-0.1899,-0.1904,-0.1923,-0.1926,-0.1946,-0.1931,-0.1941,-0.1956,-0.1923,-0.1932,-0.1917,-0.19,-0.1908,-0.1909,-0.1898,-0.1926,-0.1911,-0.1915,-0.1913,-0.1921,-0.1928,-0.1934,-0.1857,-0.1857,-0.1857,0,0,-0.1898,-0.1904,-0.1917,-0.1933,-0.1949,-0.1954,-0.1962,-0.197,-0.1971,-0.1982,-0.1961,-0.1958,-0.1951,-0.1944,-0.1939,-0.1967,-0.1952,-0.1966,-0.1998,-0.2008,-0.2014,-0.2019,-0.2026,-0.2031,-0.1971,-0.1971,-0.1972,0,-0.1895,-0.1915,-0.1923,-0.1946,-0.1961,-0.1963,-0.1986,-0.1994,-0.1999,-0.2007,-0.1992,-0.1989,-0.1968,-0.1985,-0.1988,-0.1979,-0.1982,-0.1977,-0.2016,-0.202,-0.2024,-0.2031,-0.2035,-0.1974,-0.1974,-0.1974,-0.1974,0,-0.1917,-0.1937,-0.1947,-0.1978,-0.1997,-0.2015,-0.2036,-0.205,-0.2051,-0.2058,-0.2072,-0.2049,-0.2046,-0.2044,-0.202,-0.2044,-0.2036,-0.2021,-0.2002,-0.2035,-0.2039,-0.2043,-0.1979,-0.1978,-0.1977,-0.1976,0,0,-0.1896,-0.1952,-0.1953,-0.1977,-0.2014,-0.2032,-0.2067,-0.2097,-0.2122,-0.2125,-0.2154,-0.2136,-0.2122,-0.2114,-0.2093,-0.2098,-0.2122,-0.2072,-0.2071,-0.2083,-0.2148,-0.2112,-0.2112,-0.2118,-0.2119,-0.212,-0.2142,0,-0.1906,-0.1952,-0.1979,-0.2024,-0.2051,-0.2078,-0.2114,-0.2144,-0.2161,-0.2192,-0.2182,-0.2194,-0.2152,-0.215,-0.215,-0.2128,-0.2134,-0.2117,-0.2109,-0.2109,-0.2076,-0.2116,-0.193,-0.1932,-0.2146,-0.2147,-0.2147,0,-0.1909,-0.1944,-0.1987,-0.2053,-0.2068,-0.2097,-0.2153,-0.2184,-0.2232,-0.2247,-0.2264,-0.2259,-0.2263,-0.2222,-0.2213,-0.2206,-0.2178,-0.2161,-0.2162,-0.2108,-0.208,-0.193,-0.1931,-0.2153,-0.2153,-0.2152,-0.2152,0,-0.1878,-0.1945,-0.1977,-0.2,-0.2076,-0.2102,-0.2138,-0.2193,-0.222,-0.2277,-0.2299,-0.2317,-0.2313,-0.2299,-0.2252,-0.2237,-0.2246,-0.2222,-0.2168,-0.2165,-0.1993,-0.1974,-0.2218,-0.2218,-0.2218,-0.2218,-0.2218,0,-0.1868,-0.1895,-0.1966,-0.1986,-0.2026,-0.2089,-0.2132,-0.2175,-0.224,-0.2271,-0.2311,-0.233,-0.2329,-0.233,-0.229,-0.2245,-0.2275,-0.2181,-0.2172,-0.2009,-0.1992,-0.2168,-0.2161,-0.2219,-0.2219,-0.2219,-0.2218,0,-0.1814,-0.1866,-0.1904,-0.1984,-0.2007,-0.2028,-0.2106,-0.2138,-0.2213,-0.2256,-0.2273,-0.2338,-0.2345,-0.2345,-0.2327,-0.228,-0.225,-0.2223,-0.2036,-0.2005,-0.2155,-0.2152,-0.2175,-0.2174,-0.2173,-0.2172,-0.2171,0,-0.1788,-0.1802,-0.1872,-0.1887,-0.1917,-0.1966,-0.1996,-0.2094,-0.2128,-0.2244,-0.2253,-0.2309,-0.2312,-0.2303,-0.2245,-0.2201,-0.2235,-0.2002,-0.1936,-0.2164,-0.2152,-0.215,-0.2148,-0.1731,-0.1727,-0.1724,-0.1721,0,-0.1727,-0.1746,-0.1774,-0.1805,-0.1835,-0.1873,-0.1929,-0.1958,-0.2072,-0.2118,-0.2182,-0.2209,-0.2225,-0.2105,-0.207,-0.201,-0.2,-0.1933,-0.2214,-0.1781,-0.175,-0.1738,-0.1749,-0.1691,-0.1694,-0.1696,-0.1698,-0.1699,-0.166,-0.1656,-0.1688,-0.1705,-0.174,-0.1763,-0.1757,-0.183,-0.1871,-0.1915,-0.2027,-0.2002,-0.2006,-0.1864,-0.1787,-0.1722,-0.1849,-0.1736,-0.1744,-0.1756,-0.1711,-0.1681,-0.16,-0.1602,-0.1604,-0.1606,-0.1608,0,-0.157,-0.1579,-0.159,-0.1607,-0.1595,-0.1654,-0.1693,-0.1666,-0.1665,-0.1723,-0.175,-0.1608,-0.154,-0.1553,-0.141,-0.1394,-0.1357,-0.1328,-0.126,-0.1291,-0.1318,-0.1248,-0.1016,-0.1014,-0.1013,-0.1012,0,0,-0.1526,-0.1501,-0.1507,-0.1454,-0.1463,-0.1413,-0.1407,-0.1385,-0.1391,-0.1345,-0.1326,-0.1444,-0.1496,-0.125,-0.1198,-0.1081,-0.117,-0.1029,-0.15,-0.1448,-0.1473,-0.1548,-0.1475,0,0,0,0,0]},{"header":{"parameterUnit":"m.s-1","parameterCategory":2,"la1":30.2991,"la2":30.254,"lo1":-89.0895,"lo2":-89.0444,"dy":0.0017,"dx":0.0017,"nx":28,"ny":28,"refTime":"2024-02-13T09:00:00:Z","depth":"2","parameterNumber":3,"parameterNumberName":"V-component_of_CURRENTS"},"data":[0,0,0,0,0,0,0,0,0,0,0,0,0,0,0,0,0,0,0,0,0,0,0,0,0,0,0,0,0,0,0,0,0,0,0,0,0,0,0,0,0,0,0,0,0,0,0,0,0,0,0,0,0,0,0,0,0,0,-0.0218,-0.0217,0,-0.0174,-0.0173,-0.0173,-0.0151,-0.0151,-0.0151,-0.0151,-0.0105,-0.0104,-0.0103,0,0,0,0,0,0,0,0,0,0,0,0,0,-0.0237,-0.0237,-0.0218,-0.0217,-0.0217,-0.0174,-0.0173,-0.0173,-0.0151,-0.0151,-0.0151,-0.0151,-0.0106,-0.0104,-0.0103,0,0,0,0,0,0,0,0,0,0,0,0,0,-0.0215,-0.0237,-0.0218,-0.02,-0.0198,-0.0174,-0.0173,-0.0173,-0.0151,-0.0151,-0.0151,-0.0151,-0.0106,-0.0104,-0.0103,-0.0094,0,0,-0.0097,-0.0097,0,0,0,0,0,0,0,0,-0.0217,-0.0215,-0.0203,-0.0201,-0.0199,-0.0167,-0.0163,-0.0146,-0.0151,-0.017,-0.0151,-0.0151,-0.0125,-0.0122,-0.0115,-0.0092,-0.009,-0.0097,-0.0096,-0.0095,-0.0095,0,0,0,0,0,0,0,-0.0218,-0.0216,-0.0201,-0.0203,-0.02,-0.0178,-0.0176,-0.016,-0.0149,-0.0168,-0.0166,-0.016,-0.0124,-0.0117,-0.0114,-0.0089,-0.0097,-0.0096,-0.0095,-0.0094,-0.0045,-0.0045,0,0,0,0,0,0,-0.0225,-0.0218,-0.0202,-0.02,-0.0207,-0.0178,-0.0175,-0.0178,-0.0149,-0.0145,-0.016,-0.0159,-0.012,-0.0116,-0.0112,-0.0096,-0.0095,-0.0094,-0.0093,-0.0046,-0.0045,-0.0045,0,0,0,0,0,0,-0.0226,-0.0224,-0.0204,-0.0207,-0.0202,-0.0178,-0.0181,-0.0177,-0.0169,-0.0143,-0.0139,-0.0157,-0.012,-0.0114,-0.0096,-0.0094,-0.0093,-0.0091,-0.0046,-0.0046,-0.0045,-0.0066,0,0,0,0,0,0,-0.0226,-0.0225,-0.0231,-0.0207,-0.0203,-0.0193,-0.0181,-0.0176,-0.0166,-0.0164,-0.0139,-0.0134,-0.0119,-0.0098,-0.0094,-0.0092,-0.009,-0.0046,-0.0046,-0.0045,-0.0066,-0.0067,-0.0067,0,0,0,0,0,-0.0227,-0.0236,-0.0231,-0.0229,-0.0211,-0.0193,-0.0189,-0.0171,-0.0166,-0.0164,-0.0144,-0.0135,-0.0092,-0.0097,-0.0092,-0.0089,-0.0047,-0.0046,-0.0045,-0.0066,-0.0067,-0.0067,0,0,0,0,0,0,-0.0246,-0.0233,-0.0228,-0.0232,-0.0215,-0.0189,-0.0187,-0.0173,-0.0156,-0.0157,-0.0132,-0.0126,-0.0111,-0.0095,-0.0101,-0.0073,-0.0068,-0.0066,-0.0085,-0.0086,-0.0087,-0.0093,-0.0089,0,0,0,0,0,-0.0253,-0.0258,-0.0237,-0.0241,-0.0235,-0.0212,-0.0203,-0.0191,-0.0171,-0.0164,-0.0143,-0.0122,-0.0104,-0.0092,-0.0076,-0.0059,-0.0037,-0.0053,-0.0054,-0.0055,-0.0056,-0.0021,-0.0018,-0.0043,-0.0043,-0.0043,0,0,-0.0261,-0.0255,-0.0258,-0.0245,-0.0233,-0.023,-0.0206,-0.0197,-0.019,-0.0162,-0.0148,-0.0127,-0.0101,-0.0084,-0.0075,-0.007,-0.0035,-0.0054,-0.0055,-0.0056,-0.002,-0.0017,-0.0015,-0.0043,-0.0043,-0.0043,0,0,-0.0283,-0.0275,-0.0288,-0.0276,-0.026,-0.0244,-0.0243,-0.0217,-0.0201,-0.0183,-0.0162,-0.0136,-0.0111,-0.0086,-0.0073,-0.0066,-0.0043,-0.0064,-0.0068,-0.0034,-0.0032,-0.0029,0.0006,0.0012,-0.006,-0.006,-0.006,0,-0.0294,-0.0308,-0.0287,-0.0293,-0.0288,-0.0254,-0.0263,-0.0239,-0.0208,-0.0193,-0.0184,-0.0133,-0.011,-0.0082,-0.0078,-0.0068,-0.0046,-0.0069,-0.0035,-0.0032,-0.003,0.0006,0.0012,-0.0061,-0.0061,-0.0061,-0.0061,0,-0.0324,-0.0333,-0.0338,-0.0338,-0.0327,-0.0328,-0.0294,-0.0275,-0.0251,-0.0225,-0.019,-0.015,-0.012,-0.0106,-0.009,-0.0059,-0.005,-0.0044,-0.0035,-0.0029,0.0009,0.0016,-0.0062,-0.0062,-0.0062,-0.0062,0,0,-0.0359,-0.0362,-0.0364,-0.0376,-0.0353,-0.0351,-0.0329,-0.0302,-0.029,-0.0243,-0.0222,-0.0174,-0.0146,-0.0128,-0.0098,-0.0061,-0.0019,-0.0047,-0.0045,-0.0015,0.0058,0.0097,0.0109,-0.001,-0.0009,-0.0008,0.0078,0,-0.0393,-0.0424,-0.0408,-0.0432,-0.0446,-0.0404,-0.0388,-0.0354,-0.0315,-0.0282,-0.0218,-0.0193,-0.0156,-0.0144,-0.0098,-0.0041,-0.0002,-0.0043,0.0051,0.0054,0.0085,0.0118,0.0085,0.0161,0.0085,0.0086,0.0087,0,-0.0429,-0.0448,-0.0481,-0.0487,-0.0488,-0.0488,-0.0461,-0.0443,-0.0375,-0.0343,-0.0289,-0.0241,-0.0172,-0.0151,-0.0034,-0.0063,-0.0007,0.0041,0.0046,0.0093,0.0106,0.0143,0.0177,0.0099,0.0098,0.0097,0.0096,0,-0.0477,-0.0498,-0.0531,-0.0533,-0.0529,-0.0527,-0.0516,-0.0462,-0.045,-0.0383,-0.0366,-0.0271,-0.0229,-0.0138,-0.0021,-0.0033,0.0107,0.0102,0.0192,0.0195,0.0193,0.0194,0.0175,0.0175,0.0175,0.0175,0.0175,0,-0.0521,-0.0548,-0.0558,-0.0578,-0.0611,-0.0581,-0.0593,-0.0561,-0.0515,-0.0504,-0.0408,-0.0374,-0.0226,-0.0123,-0.0025,0.0121,0.0109,0.0203,0.0225,0.0186,0.0186,0.0147,0.0142,0.0178,0.0177,0.0177,0.0176,0,-0.0567,-0.0574,-0.0618,-0.0631,-0.0638,-0.066,-0.0659,-0.0662,-0.0607,-0.0588,-0.0571,-0.0445,-0.0301,-0.0142,0.0019,0.0114,0.0245,0.0291,0.0242,0.0258,0.0307,0.0301,0.0399,0.0402,0.0404,0.0405,0.0406,0,-0.0593,-0.062,-0.0667,-0.0702,-0.0713,-0.0738,-0.0753,-0.0716,-0.0714,-0.0632,-0.0627,-0.0481,-0.0371,-0.0096,0.0102,0.0306,0.0296,0.0383,0.0359,0.0321,0.0333,0.0323,0.0314,0.0346,0.0347,0.0347,0.0348,0,-0.0641,-0.0657,-0.0696,-0.077,-0.0807,-0.0847,-0.0861,-0.0873,-0.0819,-0.0781,-0.0702,-0.0606,-0.0326,-0.0088,0.0194,0.0298,0.0355,0.0402,0.0383,0.0296,0.0278,0.0287,0.0279,0.0353,0.0353,0.0352,0.0352,0.0352,-0.0672,-0.0715,-0.0768,-0.0835,-0.0889,-0.0939,-0.0965,-0.0959,-0.0948,-0.0872,-0.0769,-0.06,-0.035,0.0048,0.0247,0.043,0.0419,0.0454,0.0449,0.0444,0.0424,0.0411,0.0507,0.0507,0.0507,0.0508,0.0508,0,-0.0709,-0.0756,-0.0828,-0.0906,-0.0974,-0.0985,-0.1025,-0.1027,-0.1009,-0.0899,-0.0793,-0.0524,-0.0239,0.002,0.032,0.0497,0.0464,0.0514,0.0441,0.0435,0.043,0.0407,0.0487,0.0487,0.0488,0.0488,0,0,-0.073,-0.0804,-0.0843,-0.0958,-0.1014,-0.1083,-0.1106,-0.1086,-0.1014,-0.0907,-0.0765,-0.0565,-0.0237,-0.0027,0.0202,0.0359,0.0342,0.036,0.0358,0.0239,0.0232,0.0377,0.0333,0,0,0,0,0]}],[{"header":{"parameterUnit":"m.s-1","parameterCategory":2,"la1":30.2991,"la2":30.254,"lo1":-89.0895,"lo2":-89.0444,"dy":0.0017,"dx":0.0017,"nx":28,"ny":28,"refTime":"2024-02-13T09:00:00:Z","depth":"4","parameterNumber":2,"parameterNumberName":"U-component_of_CURRENTS"},"data":[0,0,0,0,0,0,0,0,0,0,0,0,0,0,0,0,0,0,0,0,0,0,0,0,0,0,0,0,0,0,0,0,0,0,0,0,0,0,0,0,0,0,0,0,0,0,0,0,0,0,0,0,0,0,0,0,0,0,-0.1314,-0.1314,0,-0.1348,-0.1348,-0.1348,-0.1377,-0.1377,-0.1378,-0.1378,-0.1417,-0.1417,-0.1418,0,0,0,0,0,0,0,0,0,0,0,0,0,-0.127,-0.1271,-0.1314,-0.1314,-0.1315,-0.1348,-0.1348,-0.1348,-0.1377,-0.1377,-0.1378,-0.1379,-0.1416,-0.1417,-0.1418,0,0,0,0,0,0,0,0,0,0,0,0,0,-0.1294,-0.1271,-0.1314,-0.1334,-0.1336,-0.1348,-0.1348,-0.1348,-0.1377,-0.1377,-0.1378,-0.1379,-0.1416,-0.1417,-0.1418,-0.141,0,0,-0.1421,-0.1421,0,0,0,0,0,0,0,0,-0.1292,-0.1295,-0.1331,-0.1333,-0.1335,-0.136,-0.1347,-0.137,-0.1377,-0.136,-0.1378,-0.1379,-0.1399,-0.1401,-0.1404,-0.1412,-0.1413,-0.1421,-0.1421,-0.1422,-0.1422,0,0,0,0,0,0,0,-0.1291,-0.1294,-0.1326,-0.1331,-0.1334,-0.1341,-0.1345,-0.1351,-0.1374,-0.1361,-0.1364,-0.137,-0.14,-0.1403,-0.1405,-0.1414,-0.1421,-0.1422,-0.1422,-0.1422,-0.1481,-0.1482,0,0,0,0,0,0,-0.1289,-0.1292,-0.1325,-0.1327,-0.1317,-0.1341,-0.1345,-0.135,-0.1374,-0.1378,-0.1369,-0.1371,-0.1401,-0.1404,-0.1406,-0.1464,-0.1422,-0.1423,-0.1423,-0.148,-0.1481,-0.1483,0,0,0,0,0,0,-0.1288,-0.1291,-0.1323,-0.1312,-0.1316,-0.1341,-0.1346,-0.1351,-0.1378,-0.138,-0.1385,-0.1396,-0.1401,-0.1405,-0.1437,-0.1463,-0.1423,-0.1424,-0.1479,-0.1481,-0.1482,-0.1537,0,0,0,0,0,0,-0.1286,-0.1291,-0.1304,-0.1311,-0.1317,-0.1348,-0.1346,-0.1351,-0.138,-0.1383,-0.1404,-0.1406,-0.1402,-0.1436,-0.1438,-0.1464,-0.1424,-0.1478,-0.148,-0.1481,-0.1534,-0.154,-0.1546,0,0,0,0,0,-0.1285,-0.1297,-0.1304,-0.1309,-0.1331,-0.1349,-0.1353,-0.1372,-0.1381,-0.1398,-0.1414,-0.1407,-0.1449,-0.1437,-0.144,-0.1466,-0.1477,-0.1479,-0.1481,-0.1531,-0.1539,-0.1546,0,0,0,0,0,0,-0.1286,-0.1301,-0.1309,-0.1327,-0.1346,-0.1355,-0.1374,-0.1386,-0.1411,-0.142,-0.1421,-0.1425,-0.1461,-0.1456,-0.1443,-0.1488,-0.1461,-0.1464,-0.1499,-0.1506,-0.1512,-0.1507,-0.1425,0,0,0,0,0,-0.1291,-0.1306,-0.1321,-0.1338,-0.1349,-0.1366,-0.138,-0.1394,-0.1412,-0.1425,-0.144,-0.1454,-0.1467,-0.1482,-0.149,-0.1517,-0.1506,-0.1535,-0.1541,-0.1546,-0.1544,-0.1549,-0.1556,-0.149,-0.149,-0.149,0,0,-0.1298,-0.1308,-0.1318,-0.134,-0.1356,-0.138,-0.1377,-0.1406,-0.1433,-0.1424,-0.1472,-0.1477,-0.1479,-0.1509,-0.1525,-0.1513,-0.1561,-0.1549,-0.1553,-0.1548,-0.1553,-0.1559,-0.1564,-0.1492,-0.1491,-0.1491,0,0,-0.1311,-0.1327,-0.1344,-0.1364,-0.1393,-0.1404,-0.1419,-0.1445,-0.1466,-0.1505,-0.1504,-0.1526,-0.1554,-0.1557,-0.1562,-0.1604,-0.159,-0.1613,-0.1644,-0.165,-0.1655,-0.166,-0.1662,-0.1666,-0.1618,-0.1618,-0.1619,0,-0.1321,-0.1342,-0.1353,-0.1377,-0.14,-0.1419,-0.1448,-0.1471,-0.1507,-0.1528,-0.1531,-0.1572,-0.1573,-0.1604,-0.1617,-0.1617,-0.1618,-0.1618,-0.1657,-0.1661,-0.1665,-0.1666,-0.167,-0.1621,-0.1621,-0.1621,-0.162,0,-0.1341,-0.1371,-0.1384,-0.142,-0.1447,-0.1475,-0.1506,-0.1541,-0.1568,-0.1588,-0.1633,-0.1635,-0.1657,-0.1664,-0.1654,-0.1685,-0.1676,-0.1662,-0.1639,-0.1675,-0.1674,-0.1677,-0.1626,-0.1625,-0.1624,-0.1623,0,0,-0.1326,-0.1387,-0.1394,-0.1425,-0.1474,-0.1496,-0.1547,-0.1592,-0.1631,-0.1664,-0.1709,-0.1724,-0.1726,-0.1729,-0.1723,-0.1729,-0.1753,-0.1711,-0.171,-0.1712,-0.1771,-0.1675,-0.1669,-0.1751,-0.1752,-0.1753,-0.1763,0,-0.134,-0.1391,-0.142,-0.148,-0.151,-0.1552,-0.1599,-0.1644,-0.1682,-0.1732,-0.1741,-0.1777,-0.1752,-0.1767,-0.1769,-0.1759,-0.1763,-0.1752,-0.1736,-0.1735,-0.1644,-0.1669,-0.1755,-0.1765,-0.1766,-0.1767,-0.1767,0,-0.1341,-0.138,-0.1437,-0.1515,-0.1533,-0.1577,-0.1653,-0.1697,-0.1761,-0.1792,-0.1825,-0.1835,-0.1854,-0.1825,-0.1823,-0.1821,-0.1799,-0.1784,-0.1784,-0.1674,-0.1644,-0.1719,-0.1772,-0.1772,-0.1771,-0.1771,-0.1771,0,-0.1309,-0.1389,-0.1437,-0.1464,-0.1553,-0.1596,-0.1646,-0.1717,-0.1754,-0.1829,-0.1861,-0.189,-0.1906,-0.1889,-0.1859,-0.1848,-0.1852,-0.1831,-0.1724,-0.1718,-0.1777,-0.1772,-0.1824,-0.1824,-0.1824,-0.1824,-0.1824,0,-0.1293,-0.1337,-0.1433,-0.1461,-0.1524,-0.1594,-0.1662,-0.1716,-0.1792,-0.1829,-0.1884,-0.1904,-0.1922,-0.1925,-0.1887,-0.1813,-0.1873,-0.1728,-0.1712,-0.1801,-0.1799,-0.1779,-0.1774,-0.1824,-0.1824,-0.1824,-0.1824,0,-0.1238,-0.1305,-0.1365,-0.1473,-0.1509,-0.1551,-0.1656,-0.1695,-0.1783,-0.1833,-0.1856,-0.1923,-0.1923,-0.1929,-0.1911,-0.1836,-0.1786,-0.1746,-0.1853,-0.1844,-0.1642,-0.164,-0.1621,-0.1618,-0.1615,-0.1613,-0.1611,0,-0.121,-0.1238,-0.1352,-0.1386,-0.1437,-0.1516,-0.156,-0.1668,-0.1701,-0.1818,-0.1822,-0.1879,-0.1902,-0.1801,-0.1822,-0.1763,-0.1731,-0.17,-0.1652,-0.1634,-0.1621,-0.1623,-0.1624,-0.1606,-0.1605,-0.1605,-0.1604,0,-0.1152,-0.1201,-0.1248,-0.1316,-0.1375,-0.1429,-0.1504,-0.152,-0.1633,-0.1732,-0.1737,-0.1736,-0.1744,-0.1724,-0.1702,-0.1652,-0.1717,-0.167,-0.1674,-0.1629,-0.1615,-0.1606,-0.1611,-0.1594,-0.1595,-0.1596,-0.1597,0,-0.1101,-0.1115,-0.1181,-0.1225,-0.1293,-0.1317,-0.1375,-0.1415,-0.1463,-0.1593,-0.1591,-0.1654,-0.1729,-0.1667,-0.1641,-0.1597,-0.1556,-0.1485,-0.1499,-0.151,-0.1466,-0.1433,-0.1339,0,0,0,0,0,-0.1044,-0.1049,-0.1086,-0.1129,-0.1188,-0.1226,-0.1321,-0.1381,-0.1495,-0.1454,-0.1519,-0.1518,-0.1498,-0.1532,-0.1456,-0.1582,-0.156,-0.1488,-0.1486,-0.1539,-0.1551,-0.1508,0,0,0,0,0,0,-0.1007,-0.104,-0.1049,-0.1031,-0.104,-0.1093,-0.1147,-0.123,-0.1216,-0.1336,-0.1328,-0.1417,-0.1414,-0.1511,-0.1421,-0.1429,-0.1395,-0.1531,-0.1527,-0.1533,-0.1543,-0.1552,-0.1513,0,0,0,0,0]},{"header":{"parameterUnit":"m.s-1","parameterCategory":2,"la1":30.2991,"la2":30.254,"lo1":-89.0895,"lo2":-89.0444,"dy":0.0017,"dx":0.0017,"nx":28,"ny":28,"refTime":"2024-02-13T09:00:00:Z","depth":"4","parameterNumber":3,"parameterNumberName":"V-component_of_CURRENTS"},"data":[0,0,0,0,0,0,0,0,0,0,0,0,0,0,0,0,0,0,0,0,0,0,0,0,0,0,0,0,0,0,0,0,0,0,0,0,0,0,0,0,0,0,0,0,0,0,0,0,0,0,0,0,0,0,0,0,0,0,-0.0172,-0.0172,0,-0.0147,-0.0147,-0.0146,-0.0134,-0.0134,-0.0134,-0.0134,-0.01,-0.0099,-0.0098,0,0,0,0,0,0,0,0,0,0,0,0,0,-0.0172,-0.0172,-0.0172,-0.0172,-0.0171,-0.0147,-0.0147,-0.0146,-0.0134,-0.0134,-0.0134,-0.0134,-0.01,-0.0099,-0.0098,0,0,0,0,0,0,0,0,0,0,0,0,0,-0.0162,-0.0172,-0.0172,-0.0162,-0.0161,-0.0147,-0.0147,-0.0146,-0.0134,-0.0134,-0.0134,-0.0134,-0.01,-0.0099,-0.0098,-0.0091,0,0,-0.0094,-0.0093,0,0,0,0,0,0,0,0,-0.0163,-0.0162,-0.0164,-0.0162,-0.0161,-0.0143,-0.0134,-0.0127,-0.0134,-0.0144,-0.0134,-0.0134,-0.0113,-0.0111,-0.0107,-0.0089,-0.0088,-0.0094,-0.0093,-0.0092,-0.0092,0,0,0,0,0,0,0,-0.0164,-0.0163,-0.0162,-0.0163,-0.0162,-0.0146,-0.0145,-0.0133,-0.0129,-0.0143,-0.0142,-0.0139,-0.0112,-0.0108,-0.0106,-0.0087,-0.0094,-0.0092,-0.0092,-0.0091,-0.0059,-0.0058,0,0,0,0,0,0,-0.0168,-0.0164,-0.0163,-0.0162,-0.0162,-0.0146,-0.0145,-0.0149,-0.013,-0.0127,-0.0139,-0.0139,-0.011,-0.0107,-0.0105,-0.0094,-0.0092,-0.0091,-0.009,-0.0059,-0.0059,-0.0058,0,0,0,0,0,0,-0.0168,-0.0169,-0.0164,-0.0161,-0.016,-0.0146,-0.0151,-0.0149,-0.0146,-0.0127,-0.0123,-0.0139,-0.011,-0.0106,-0.0094,-0.0092,-0.009,-0.0089,-0.0059,-0.0059,-0.0058,-0.0073,0,0,0,0,0,0,-0.0169,-0.0169,-0.0176,-0.0162,-0.016,-0.016,-0.0151,-0.0148,-0.0144,-0.0143,-0.0125,-0.0122,-0.011,-0.0096,-0.0093,-0.0091,-0.0088,-0.0059,-0.0059,-0.0059,-0.0073,-0.0073,-0.0074,0,0,0,0,0,-0.0169,-0.0178,-0.0176,-0.0176,-0.0169,-0.016,-0.0157,-0.0147,-0.0144,-0.0144,-0.013,-0.0122,-0.0093,-0.0095,-0.0091,-0.0088,-0.0059,-0.0059,-0.0059,-0.0072,-0.0073,-0.0074,0,0,0,0,0,0,-0.0181,-0.0177,-0.0175,-0.0183,-0.0173,-0.0158,-0.0158,-0.015,-0.0139,-0.014,-0.0121,-0.0117,-0.0107,-0.0095,-0.0098,-0.0079,-0.0075,-0.0074,-0.0086,-0.0087,-0.0088,-0.009,-0.0087,0,0,0,0,0,-0.0187,-0.0195,-0.0183,-0.019,-0.0187,-0.0174,-0.0169,-0.0162,-0.015,-0.0146,-0.0131,-0.0116,-0.0103,-0.0093,-0.0083,-0.007,-0.0049,-0.0066,-0.0066,-0.0067,-0.0066,-0.0032,-0.0029,-0.0058,-0.0058,-0.0058,0,0,-0.0194,-0.0193,-0.0197,-0.0193,-0.0187,-0.0187,-0.0171,-0.0168,-0.0164,-0.0143,-0.0135,-0.0121,-0.0102,-0.009,-0.0084,-0.0078,-0.0047,-0.0067,-0.0068,-0.0067,-0.0031,-0.0028,-0.0026,-0.0058,-0.0058,-0.0058,0,0,-0.0211,-0.0211,-0.0223,-0.0216,-0.0209,-0.0199,-0.0199,-0.0184,-0.0174,-0.0163,-0.0148,-0.0129,-0.0112,-0.0092,-0.0081,-0.0078,-0.0056,-0.0078,-0.0078,-0.0045,-0.0042,-0.0039,-0.0006,-0.0,-0.0074,-0.0074,-0.0074,0,-0.0221,-0.0235,-0.0223,-0.0229,-0.0228,-0.0207,-0.0215,-0.0199,-0.018,-0.0169,-0.0165,-0.0128,-0.0112,-0.0087,-0.0086,-0.0079,-0.0058,-0.0077,-0.0045,-0.0042,-0.0039,-0.0006,0.0001,-0.0074,-0.0074,-0.0074,-0.0074,0,-0.0243,-0.0254,-0.0259,-0.0263,-0.0257,-0.0261,-0.0239,-0.0227,-0.0213,-0.0194,-0.0168,-0.014,-0.0116,-0.0107,-0.0095,-0.0066,-0.0058,-0.0054,-0.0043,-0.0037,-0.0002,0.0005,-0.0075,-0.0075,-0.0075,-0.0075,0,0,-0.0269,-0.0276,-0.0279,-0.0291,-0.0277,-0.0279,-0.0264,-0.0246,-0.0238,-0.0206,-0.0189,-0.0154,-0.0133,-0.0119,-0.0096,-0.0062,-0.002,-0.005,-0.0048,-0.0018,0.0055,0.0048,0.0055,-0.0012,-0.0011,-0.001,0.0072,0,-0.0293,-0.0319,-0.0311,-0.0333,-0.0344,-0.0318,-0.0308,-0.0285,-0.0258,-0.0233,-0.0184,-0.0166,-0.0138,-0.013,-0.0088,-0.004,-0.0003,-0.0043,0.0045,0.0048,0.004,0.0062,-0.0007,0.0077,0.0079,0.008,0.0081,0,-0.0318,-0.0335,-0.0364,-0.0374,-0.0376,-0.0381,-0.0365,-0.0354,-0.0303,-0.028,-0.0236,-0.02,-0.014,-0.0127,-0.0022,-0.0049,-0.0,0.0041,0.0046,0.0048,0.0053,0.007,0.0094,0.0093,0.0092,0.0091,0.0091,0,-0.0348,-0.0371,-0.04,-0.0403,-0.0407,-0.0411,-0.0408,-0.037,-0.0364,-0.0311,-0.0299,-0.0218,-0.0183,-0.0102,-0.0007,-0.0016,0.0107,0.0105,0.0148,0.0148,0.0137,0.0133,0.0174,0.0174,0.0174,0.0173,0.0173,0,-0.0375,-0.04,-0.0421,-0.0438,-0.0471,-0.0453,-0.047,-0.0448,-0.0416,-0.0409,-0.0332,-0.0304,-0.0177,-0.0091,-0.0007,0.01,0.0112,0.0155,0.0171,0.0129,0.0123,0.0142,0.0137,0.0176,0.0176,0.0175,0.0175,0,-0.04,-0.0414,-0.0454,-0.0477,-0.0489,-0.0512,-0.0527,-0.0532,-0.0494,-0.048,-0.0467,-0.0361,-0.0244,-0.0114,0.0027,0.0092,0.0195,0.0225,0.0178,0.0189,0.0214,0.0208,0.0283,0.0283,0.0284,0.0284,0.0284,0,-0.0413,-0.0437,-0.0493,-0.0527,-0.0543,-0.0575,-0.0595,-0.0576,-0.0577,-0.0515,-0.0508,-0.0394,-0.0312,-0.0107,0.0026,0.02,0.0213,0.0268,0.0237,0.0219,0.0227,0.022,0.0213,0.0285,0.0285,0.0285,0.0285,0,-0.0438,-0.0463,-0.0498,-0.0571,-0.0613,-0.0654,-0.0677,-0.0682,-0.0648,-0.062,-0.0538,-0.042,-0.0284,-0.0116,0.0026,0.0144,0.0236,0.0272,0.0272,0.0243,0.0222,0.0228,0.0221,0.0287,0.0286,0.0286,0.0286,0,-0.0457,-0.0491,-0.0544,-0.0603,-0.0666,-0.0709,-0.0719,-0.0707,-0.0698,-0.0622,-0.0595,-0.0437,-0.0337,-0.0145,-0.0017,0.0108,0.0127,0.0153,0.0159,0.0159,0.0096,0.005,0.0082,0,0,0,0,0,-0.0468,-0.0508,-0.0571,-0.0637,-0.07,-0.0733,-0.0761,-0.0756,-0.0724,-0.0677,-0.0633,-0.0505,-0.0295,-0.0196,-0.0075,-0.002,0.0143,0.0124,0.0173,0.0294,0.0293,0.0239,0,0,0,0,0,0,-0.0478,-0.0537,-0.057,-0.065,-0.0699,-0.0761,-0.0782,-0.0762,-0.0725,-0.0676,-0.0563,-0.0489,-0.0283,-0.0365,-0.0076,-0.0036,0.0007,0.023,0.0232,0.0295,0.0294,0.0292,0.0237,0,0,0,0,0]}]]